Other Public Products
Issued by NWS Charleston, SC

Current Version | Previous Version | Graphics & Text | Print | Product List | Glossary On
Versions: 1 2 3 4 5 6 7 8 9 10 11 12 13 14 15 16 17 18 19 20 21 22 23 24 25 26 27 28 29 30 31 32 33 34 35 36 37 38 39 40 41 42 43 44 45 46 47 48 49 50
992
FPUS82 KCHS 222312
OPUCHS

TEST...KCHS/KSAV Gateway Observations...TEST
National Weather Service Charleston SC
600 PM EST THU FEB 22 2018

NOTE: "fair" indicates few or no clouds below 12,000 feet with no
significant weather and/or obstructions to visibility.

SCZ050-WAZ558-NCZ071-TXZ119-213-PAZ071-DCZ001-FLZ074-172-MI076-
NYZ176-178-MAZ016-IL014-TNZ027-NJZ106-GAZ044-MD014-230000-

...Gateway Observations for Charleston International...

CITY           SKY/WX    TMP DP  RH WIND       PRES   REMARKS
Chas Airport   FAIR      74  60  61 S13       30.41R
Seattle        MOSUNNY   38  18  44 N16       30.33R WCI  29
Charlotte      FAIR      76  62  62 S13       30.37R
Dallas DFW     CLOUDY    39  36  89 NW10      30.20F WCI  32
Dallas Love    CLOUDY    38  36  92 NW8       30.23S WCI  32
Philladelphia  LGT RAIN  40  37  89 NE16G24   30.61R WCI  31
Wash National  LGT RAIN  49  47  93 NE18      30.53F
Baltimore      DRIZZLE   45  44  97 NE18      30.54S FOG
Miami          FAIR      78  68  71 E14       30.30S
Detroit        MOCLDY    38  26  62 E7        30.54R WCI  33
Newark         LGT RAIN  38  36  92 N12       30.65R WCI  30
Laguardia      CLOUDY    39  34  82 NE12      30.65R WCI  32
J F K          LGT RAIN  37  36  96 NE10      30.66R WCI  30
Boston Logan   LGT SNOW  33  31  92 CALM      30.69R FOG
Ft. Lauderdale FAIR      76  68  76 E16       30.30R
Chicago O`Hare CLOUDY    39  28  64 NE13      30.41R WCI  31
Chicago Midway CLOUDY    40  31  70 E13       30.41R WCI  32
Houston Bush   LGT RAIN  70  68  93 NW3       30.14S FOG
Houston Hobby  CLOUDY    75  73  93 SE13      30.13S
Nashville      CLOUDY    60  57  89 N3        30.32F
Atlanta        FAIR      76  63  64 S8        30.37R

$$

GAZ044-118-TXZ119-213-NCZ071-DCZ001-MDZ014-506-PAZ021-071-NJZ106-
NYZ176-178-MAZ106-OHZ011-021-055-MIZ076-KYZ091-ILZ014-INZ047-
MNZ060-ONZ431-230000-

...Gateway Observations for Savannah International...

CITY           SKY/WX    TMP DP  RH WIND       PRES   REMARKS
Savannah Arpt  FAIR      74  62  66 S12       30.40R
Atlanta        FAIR      76  63  64 S8        30.37R
Charlotte      FAIR      76  62  62 S13       30.37R
Dallas DFW     CLOUDY    39  36  89 NW10      30.20F WCI  32
Houston Bush   LGT RAIN  70  68  93 NW3       30.14S FOG
Wash National  LGT RAIN  49  47  93 NE18      30.53F
Wash Dulles    CLOUDY    45  44  97 N10       30.52S FOG
Baltimore      DRIZZLE   45  44  97 NE18      30.54S FOG
Philadelphia   LGT RAIN  40  37  89 NE16G24   30.61R WCI  31
Newark         LGT RAIN  38  36  92 N12       30.65R WCI  30
Laguardia      CLOUDY    39  34  82 NE12      30.65R WCI  32
J F K          LGT RAIN  37  36  96 NE10      30.66R WCI  30
Boston         LGT SNOW  33  31  92 CALM      30.69R FOG
Pittsburg      CLOUDY    41  38  89 NE7       30.45S
Akron          CLOUDY    45  38  76 E7        30.45S
Cleveland      CLOUDY    34  33  96 NE17      30.51F FOG     WCI  23
Cincinnati     CLOUDY    45  43  93 E13       30.35F
Columbus       CLOUDY    44  41  91 E10       30.42F
Detroit        MOCLDY    38  26  62 E7        30.54R WCI  33
Chicago O`Hare CLOUDY    39  28  64 NE13      30.41R WCI  31
Minneapolis    CLOUDY    30  14  51 E10       30.38F WCI  21
Indianapolis   DRIZZLE   44  41  89 E13       30.36R
Toronto Canada PTCLDY    32  19  59 E9        30.62F WCI  24

$$




USA.gov is the U.S. government's official web portal to all federal, state and local government web resources and services.